Weather History for Detroit Lakes, MN

Change the Weather History Date:

Friday, November 9, 2012

  Actual Average Record
Temperature  
Mean Temperature 35 °F -  
Max Temperature 37 °F 37 °F 62 °F (1999)
Min Temperature 33 °F 22 °F 2 °F (1945)
Degree Days  
Heating Degree Days 30    
Moisture  
Dew Point 32 °F    
Average Humidity 90    
Maximum Humidity 93    
Minimum Humidity 87    
Precipitation  
Precipitation 0.00 in - - ()
Sea Level Pressure  
Sea Level Pressure 30.04 in    
Wind  
Wind Speed 11 mph (ENE)    
Max Wind Speed 20 mph    
Max Gust Speed 28 mph    
Visibility 10 miles    
Events      
Averages and records for this station are not official NWS values.
T = Trace of Precipitation, MM = Missing Value Source: NWS Daily Summary

Daily Weather History Graph

Daily Weather History Graph

Search for Another Location

Airport:

Trip Planner

Search our weather history database for the weather conditions in past years. The results will help you decide how hot, cold, wet, or windy it might be!

Date:

Astronomy

Nov. 09, 2012 Rise Set
Actual Time 7:18 AM CST 4:55 PM CST
Civil Twilight 6:45 AM CST 5:28 PM CST
Nautical Twilight 6:09 AM CST 6:04 PM CST
Astronomical Twilight 5:33 AM CST 6:40 PM CST
Moon 2:01 AM CST (11/9) 2:24 PM CST (11/9)
Length of Visible Light 10h 42m
Length of Day
9h 37m
Waning Crescent, 23% of the Moon is Illuminated
Nov 9
Waning Crescent
Nov 13
New
Nov 20
First Quarter
Nov 28
Full
Dec 6
Last Quarter

Hourly Weather History & Observations

Time (CST) Temp. Windchill Dew Point Humidity Pressure Visibility Wind Dir Wind Speed Gust Speed Precip Events Conditions
12:12 AM 35.6 °F 29.2 °F 32.0 °F 87% 30.11 in 10.0 mi NNE 8.1 mph - N/A   Overcast
12:33 AM 35.6 °F 29.2 °F 32.0 °F 87% 30.12 in 10.0 mi NE 8.1 mph - N/A   Overcast
12:52 AM 35.6 °F 29.2 °F 32.0 °F 87% 30.11 in 10.0 mi NNE 8.1 mph - N/A   Overcast
1:12 AM 35.6 °F 29.9 °F 32.0 °F 87% 30.11 in 10.0 mi NNE 6.9 mph - N/A   Overcast
1:33 AM 35.6 °F 29.2 °F 32.0 °F 87% 30.11 in 10.0 mi NNE 8.1 mph - N/A   Overcast
1:52 AM 35.6 °F 29.9 °F 32.0 °F 87% 30.11 in 10.0 mi NNE 6.9 mph - N/A   Overcast
2:12 AM 35.6 °F 28.0 °F 32.0 °F 87% 30.11 in 10.0 mi NE 10.4 mph - N/A   Overcast
2:33 AM 35.6 °F 28.0 °F 32.0 °F 87% 30.11 in 10.0 mi NE 10.4 mph - N/A   Overcast
2:52 AM 35.6 °F 28.0 °F 32.0 °F 87% 30.12 in 10.0 mi NE 10.4 mph - N/A   Overcast
3:13 AM 33.8 °F 24.8 °F 32.0 °F 93% 30.12 in 10.0 mi NE 12.7 mph - N/A   Overcast
3:32 AM 33.8 °F 25.8 °F 32.0 °F 93% 30.11 in 10.0 mi ENE 10.4 mph 16.1 mph N/A   Overcast
3:52 AM 33.8 °F 24.8 °F 32.0 °F 93% 30.10 in 10.0 mi ENE 12.7 mph 18.4 mph N/A   Mostly Cloudy
4:13 AM 33.8 °F 25.8 °F 32.0 °F 93% 30.11 in 10.0 mi ENE 10.4 mph - N/A   Overcast
4:32 AM 33.8 °F 25.3 °F 32.0 °F 93% 30.11 in 10.0 mi ENE 11.5 mph - N/A   Overcast
4:52 AM 33.8 °F 25.3 °F 32.0 °F 93% 30.11 in 10.0 mi ENE 11.5 mph 17.3 mph N/A   Overcast
5:13 AM 33.8 °F 24.3 °F 32.0 °F 93% 30.10 in 10.0 mi ENE 13.8 mph 18.4 mph N/A   Overcast
5:52 AM 33.8 °F 25.3 °F 32.0 °F 93% 30.10 in 10.0 mi ENE 11.5 mph 17.3 mph N/A   Overcast
6:13 AM 33.8 °F 25.8 °F 32.0 °F 93% 30.11 in 10.0 mi ENE 10.4 mph - N/A   Overcast
6:32 AM 33.8 °F 27.0 °F 32.0 °F 93% 30.11 in 10.0 mi ENE 8.1 mph - N/A   Overcast
6:52 AM 33.8 °F 25.3 °F 30.2 °F 87% 30.10 in 10.0 mi ENE 11.5 mph - N/A   Overcast
7:13 AM 33.8 °F 24.8 °F 32.0 °F 93% 30.10 in 10.0 mi ENE 12.7 mph 19.6 mph N/A   Overcast
7:32 AM 33.8 °F 25.8 °F 32.0 °F 93% 30.09 in 10.0 mi ENE 10.4 mph 20.7 mph N/A   Mostly Cloudy
7:53 AM 33.8 °F 24.3 °F 32.0 °F 93% 30.08 in 10.0 mi East 13.8 mph 25.3 mph N/A   Mostly Cloudy
8:13 AM 33.8 °F 25.3 °F 32.0 °F 93% 30.09 in 10.0 mi ENE 11.5 mph 16.1 mph N/A   Mostly Cloudy
8:32 AM 33.8 °F 25.3 °F 32.0 °F 93% 30.11 in 10.0 mi East 11.5 mph 16.1 mph N/A   Mostly Cloudy
8:53 AM 33.8 °F 27.0 °F 32.0 °F 93% 30.10 in 10.0 mi East 8.1 mph - N/A   Overcast
9:13 AM 33.8 °F 26.4 °F 32.0 °F 93% 30.11 in 10.0 mi East 9.2 mph - N/A   Overcast
9:32 AM 33.8 °F 26.4 °F 32.0 °F 93% 30.11 in 10.0 mi ENE 9.2 mph - N/A   Overcast
9:53 AM 33.8 °F 25.3 °F 32.0 °F 93% 30.11 in 10.0 mi East 11.5 mph - N/A   Overcast
10:13 AM 33.8 °F 25.3 °F 32.0 °F 93% 30.10 in 10.0 mi East 11.5 mph - N/A   Overcast
10:32 AM 33.8 °F 24.3 °F 32.0 °F 93% 30.10 in 10.0 mi ENE 13.8 mph 17.3 mph N/A   Overcast
10:53 AM 33.8 °F 26.4 °F 32.0 °F 93% 30.10 in 10.0 mi East 9.2 mph - N/A   Overcast
11:12 AM 33.8 °F 24.3 °F 32.0 °F 93% 30.08 in 10.0 mi East 13.8 mph 18.4 mph N/A   Overcast
11:33 AM 33.8 °F 23.9 °F 32.0 °F 93% 30.07 in 10.0 mi ENE 15.0 mph - N/A   Overcast
11:53 AM 33.8 °F 24.8 °F 32.0 °F 93% 30.06 in 10.0 mi ENE 12.7 mph 17.3 mph N/A   Overcast
12:12 PM 35.6 °F 26.2 °F 32.0 °F 87% 30.05 in 10.0 mi East 15.0 mph 19.6 mph N/A   Overcast
12:33 PM 33.8 °F 23.5 °F 32.0 °F 93% 30.05 in 10.0 mi ENE 16.1 mph 23.0 mph N/A   Overcast
12:52 PM 33.8 °F 23.9 °F 32.0 °F 93% 30.04 in 10.0 mi East 15.0 mph 21.9 mph N/A   Overcast
1:13 PM 33.8 °F 24.8 °F 32.0 °F 93% 30.03 in 10.0 mi ENE 12.7 mph 21.9 mph N/A   Overcast
1:32 PM 35.6 °F 25.9 °F 32.0 °F 87% 30.03 in 10.0 mi ENE 16.1 mph - N/A   Overcast
1:52 PM 35.6 °F 26.6 °F 32.0 °F 87% 30.03 in 10.0 mi East 13.8 mph 20.7 mph N/A   Overcast
2:13 PM 35.6 °F 26.6 °F 32.0 °F 87% 30.03 in 10.0 mi East 13.8 mph 18.4 mph N/A   Overcast
2:32 PM 35.6 °F 28.0 °F 32.0 °F 87% 30.02 in 10.0 mi East 10.4 mph 16.1 mph N/A   Overcast
2:52 PM 35.6 °F 28.0 °F 32.0 °F 87% 30.02 in 10.0 mi ENE 10.4 mph - N/A   Overcast
3:13 PM 35.6 °F 27.5 °F 32.0 °F 87% 30.02 in 10.0 mi ENE 11.5 mph 19.6 mph N/A   Overcast
3:32 PM 35.6 °F 28.0 °F 32.0 °F 87% 30.02 in 10.0 mi East 10.4 mph - N/A   Overcast
3:52 PM 35.6 °F 25.9 °F 32.0 °F 87% 30.01 in 10.0 mi East 16.1 mph - N/A   Overcast
4:13 PM 35.6 °F 25.9 °F 32.0 °F 87% 30.01 in 10.0 mi East 16.1 mph 20.7 mph N/A   Overcast
4:32 PM 35.6 °F 26.6 °F 32.0 °F 87% 30.00 in 10.0 mi East 13.8 mph 19.6 mph N/A   Overcast
4:52 PM 35.6 °F 27.1 °F 32.0 °F 87% 30.00 in 10.0 mi East 12.7 mph 24.2 mph N/A   Overcast
5:13 PM 35.6 °F 27.1 °F 32.0 °F 87% 29.99 in 10.0 mi East 12.7 mph 20.7 mph N/A   Overcast
5:32 PM 35.6 °F 27.1 °F 32.0 °F 87% 29.99 in 10.0 mi East 12.7 mph 25.3 mph N/A   Overcast
5:52 PM 35.6 °F 27.1 °F 32.0 °F 87% 29.99 in 10.0 mi East 12.7 mph 20.7 mph N/A   Overcast
6:13 PM 35.6 °F 27.5 °F 32.0 °F 87% 30.00 in 10.0 mi East 11.5 mph 18.4 mph N/A   Overcast
6:32 PM 35.6 °F 27.1 °F 32.0 °F 87% 29.99 in 10.0 mi East 12.7 mph 23.0 mph N/A   Overcast
6:52 PM 35.6 °F 26.6 °F 32.0 °F 87% 29.98 in 10.0 mi East 13.8 mph 19.6 mph N/A   Overcast
7:13 PM 35.6 °F 26.2 °F 32.0 °F 87% 29.98 in 10.0 mi ESE 15.0 mph 23.0 mph N/A   Overcast
7:32 PM 35.6 °F 28.0 °F 32.0 °F 87% 29.99 in 10.0 mi East 10.4 mph 20.7 mph N/A   Overcast
7:53 PM 35.6 °F 28.0 °F 32.0 °F 87% 29.98 in 10.0 mi East 10.4 mph 17.3 mph N/A   Overcast
8:13 PM 35.6 °F 28.6 °F 32.0 °F 87% 29.98 in 10.0 mi ESE 9.2 mph 17.3 mph N/A   Overcast
8:32 PM 35.6 °F 27.5 °F 32.0 °F 87% 29.97 in 10.0 mi ESE 11.5 mph 19.6 mph N/A   Overcast
8:53 PM 35.6 °F 28.6 °F 32.0 °F 87% 29.97 in 10.0 mi ESE 9.2 mph 17.3 mph N/A   Overcast
9:13 PM 35.6 °F 26.6 °F 32.0 °F 87% 29.97 in 10.0 mi ESE 13.8 mph 26.5 mph N/A   Overcast
9:32 PM 35.6 °F 27.1 °F 33.8 °F 93% 29.96 in 10.0 mi ESE 12.7 mph 20.7 mph N/A   Overcast
9:53 PM 35.6 °F 24.8 °F 33.8 °F 93% 29.95 in 10.0 mi ESE 19.6 mph 27.6 mph N/A   Overcast
10:13 PM 35.6 °F 28.0 °F 33.8 °F 93% 29.94 in 10.0 mi ESE 10.4 mph 19.6 mph N/A   Overcast
10:32 PM 35.6 °F 28.0 °F 33.8 °F 93% 29.92 in 10.0 mi East 10.4 mph 20.7 mph N/A   Overcast
10:53 PM 35.6 °F 25.9 °F 33.8 °F 93% 29.92 in 10.0 mi ESE 16.1 mph 24.2 mph N/A   Overcast
11:12 PM 35.6 °F 25.9 °F 33.8 °F 93% 29.91 in 10.0 mi ESE 16.1 mph 24.2 mph N/A   Overcast
11:33 PM 37.4 °F 28.9 °F 33.8 °F 87% 29.90 in 10.0 mi ESE 13.8 mph 25.3 mph N/A   Overcast
11:53 PM 37.4 °F 28.2 °F 33.8 °F 87% 29.90 in 10.0 mi ESE 16.1 mph 20.7 mph N/A   Overcast